Content
SEND FEEDBACK

Daily
Averages
Monthly
Summary
French Polynesia

PAPEETE, FRENCH POLYNESIA


Home > Oceania > French Polynesia
Elevation: 7 feet     Latitude: 17 33S     Longitude: 149 36W

WEATHER
 
SELECT A DAY
Number of Records: 214,112;   Date Range: 6/30/96 - 10/18/14
 
SHARE

PRINT THIS DATA

[ ← Previous Day ]
WEATHER ALMANAC - JULY 19, 2014
[ Next Day → ]
[ °C ]   °F
Weather ElementAverageHighLow
Temperature78.5 °F86 °F (1:00 pm)73 °F (5:00 am)
Dewpoint69.2 °F71.6 °F (12:30 pm)68 °F (12:00 am)
Humidity72.8 %88 % (8:00 pm)50 % (2:00 pm)
Barometer29.99 in30.05 in (8:00 am)29.95 in (2:00 am)
Wind Speed5 mph12.7 mph (5:00 pm)
Wind Gust18.4 mph (12:00 pm)
Weather ElementAverage
Visibility8.4 mi
Wind DirectionESE (109.6 °)

Weather ElementTotal
Precipitation---
Cooling Degree Days14.5 (Base 65)
Growing Degree Days29.5 (Base 50)
Averaged from 52 records on July 19, 2014
WEATHER CONDITIONS BREAKOUT
WIND DIRECTION BREAKOUT
WEATHER BY HOUR - JULY 19, 2014
[ °C ]   °F
Local TimeTemperatureDewpointHumidityBarometerVisibilityWind DirectionWind SpeedGust SpeedPrecipitationEventsConditions
12:00 AM75.2 °F68.0 °F78 %29.98 in6.2 miVariable2.3 mphPartly Cloudy
12:30 AM75.2 °F68.0 °F78 %29.98 in6.2 miVariable2.3 mphPartly Cloudy
1:00 AM75.2 °F68.0 °F78 %29.98 in6.2 miEast (80°)4.6 mphPartly Cloudy
2:00 AM75.0 °F69.0 °F75 %30.00 in37.0 miSouth (180°)4.6 mphClear
3:00 AM75.2 °F68.0 °F78 %29.98 in6.2 miVariable3.5 mphPartly Cloudy
3:30 AM73.4 °F68.0 °F83 %29.98 in6.2 miEast (90°)4.6 mph
4:00 AM73.4 °F68.0 °F83 %29.98 in6.2 miSE (140°)2.3 mphPartly Cloudy
4:30 AM73.4 °F68.0 °F83 %29.98 in6.2 miVariable2.3 mph
5:00 AM73.0 °F68.0 °F81 %29.99 in37.0 miCalmClear
5:00 AM73.4 °F68.0 °F83 %29.98 in6.2 miCalm
5:30 AM73.4 °F68.0 °F83 %29.98 in6.2 miCalm
6:00 AM73.4 °F69.8 °F88 %30.01 in6.2 miSSE (150°)4.6 mphPartly Cloudy
6:30 AM75.2 °F69.8 °F83 %30.01 in6.2 miSSE (150°)3.5 mphPartly Cloudy
7:00 AM75.2 °F69.8 °F83 %30.01 in6.2 miSSE (150°)4.6 mphPartly Cloudy
7:30 AM77.0 °F69.8 °F78 %30.04 in6.2 miVariable2.3 mphPartly Cloudy
8:00 AM79.0 °F71.0 °F69 %30.05 in16.0 miCalmPartly Cloudy
8:00 AM78.8 °F69.8 °F74 %30.04 in6.2 miCalmPartly Cloudy
8:30 AM80.6 °F71.6 °F74 %30.04 in6.2 miCalmPartly Cloudy
9:00 AM80.6 °F71.6 °F74 %30.04 in6.2 miWSW (250°)2.3 mphPartly Cloudy
9:30 AM82.4 °F71.6 °F70 %30.04 in6.2 miWSW (250°)3.5 mphPartly Cloudy
10:00 AM82.4 °F71.6 °F70 %30.04 in6.2 miWest (270°)3.5 mphPartly Cloudy
10:30 AM82.4 °F71.6 °F70 %30.01 in6.2 miNW (320°)4.6 mphPartly Cloudy
11:00 AM84.0 °F69.0 °F52 %30.01 in16.0 miNE (50°)11.5 mphScattered Clouds
11:00 AM84.2 °F69.8 °F62 %30.01 in6.2 miNE (50°)11.5 mphPartly Cloudy
11:30 AM86.0 °F69.8 °F58 %29.98 in6.2 miESE (110°)6.9 mphPartly Cloudy
12:00 PM84.2 °F68.0 °F58 %29.98 in6.2 miVariable6.9 mph18.4 mphPartly Cloudy
12:30 PM86.0 °F68.0 °F55 %29.98 in6.2 miNE (50°)9.2 mphPartly Cloudy
1:00 PM84.2 °F68.0 °F58 %29.95 in6.2 miNE (40°)11.5 mphScattered Clouds
1:30 PM84.2 °F68.0 °F58 %29.95 in6.2 miNE (50°)12.7 mphPartly Cloudy
2:00 PM84.0 °F68.0 °F50 %29.95 in16.0 miNE (40°)11.5 mphPartly Cloudy
2:00 PM84.2 °F68.0 °F58 %29.95 in6.2 miNE (40°)11.5 mphScattered Clouds
2:30 PM82.4 °F69.8 °F66 %29.95 in6.2 miSSW (200°)12.7 mphScattered Clouds
3:00 PM82.4 °F69.8 °F66 %29.95 in6.2 miSSW (210°)10.4 mphScattered Clouds
3:30 PM82.4 °F69.8 °F66 %29.95 in6.2 miSSW (210°)9.2 mphScattered Clouds
4:00 PM82.4 °F69.8 °F66 %29.95 in6.2 miSSW (210°)10.4 mphScattered Clouds
5:00 PM81.0 °F71.0 °F64 %29.98 in16.0 miSW (220°)10.4 mphPartly Cloudy
5:00 PM80.6 °F71.6 °F74 %29.98 in6.2 miSW (220°)10.4 mphScattered Clouds
5:30 PM80.6 °F71.6 °F74 %29.98 in6.2 miSW (220°)8.1 mphPartly Cloudy
6:00 PM80.6 °F71.6 °F74 %29.98 in6.2 miSW (220°)8.1 mphPartly Cloudy
6:30 PM78.8 °F69.8 °F74 %29.98 in6.2 miWSW (240°)5.8 mphPartly Cloudy
7:00 PM78.8 °F69.8 °F74 %29.98 in6.2 miWSW (240°)4.6 mphPartly Cloudy
7:30 PM77.0 °F69.8 °F78 %30.01 in6.2 miCalmPartly Cloudy
8:00 PM76.0 °F69.0 °F73 %30.02 in12.0 miEast (100°)3.5 mphScattered Clouds
8:00 PM77.0 °F69.8 °F78 %30.01 in6.2 miEast (100°)3.5 mphPartly Cloudy
8:30 PM75.2 °F68.0 °F78 %30.01 in6.2 miCalmPartly Cloudy
9:00 PM75.2 °F68.0 °F78 %30.01 in6.2 miESE (110°)3.5 mphPartly Cloudy
9:30 PM75.2 °F68.0 °F78 %30.01 in6.2 miCalmPartly Cloudy
10:00 PM75.2 °F68.0 °F78 %30.01 in6.2 miESE (110°)3.5 mphPartly Cloudy
10:30 PM75.2 °F68.0 °F78 %30.01 in6.2 miESE (110°)3.5 mphPartly Cloudy
11:00 PM74.0 °F68.0 °F78 %30.02 in12.0 miSSE (150°)1.2 mphScattered Clouds
11:00 PM73.4 °F68.0 °F83 %30.01 in6.2 miCalmPartly Cloudy
11:30 PM73.4 °F68.0 °F83 %30.01 in6.2 miSSE (150°)3.5 mphPartly Cloudy
Hourly data recorded from NTAA, located miles away from Papeete, French Polynesia







STORIES FROM OUR PARTNERS